Погода в Махвите

Йемен     15°28′19″N   43°32′30″E
темп.,
°C
ветер,
м/с
пор.,
м/с
влажн.,
%
обл.,
%
осадки,
мм/ч
давл.,
гПа
погр.,
м
12 апреля, пн
пн1200:00+23ссв11585 0.0 101325
03:00+21с11655 0.0 101214
06:00+20юз11785 0.0 101418
09:00+23зсз326716 0.0 1016708
12:00+27зсз534947 0.0 10141543
15:00+26зсз545452 0.2 10121189
18:00+25зсз326315 0.4 1013859
21:00+24ссв11675 0.5 1014234
13 апреля, вт
вт1300:00+23сз006893 0.0 101442
03:00+22ссв117986 0.0 101342
06:00+21ссв008212 0.0 101415
09:00+25зсз325533 0.0 1015790
12:00+28зсз634923 0.0 10141531
15:00+28зсз654782 1.9 10111828
18:00+25зсз436321 1.1 1013819
21:00+23зсз11736 1.8 1014196
14 апреля, ср
ср1400:00+23зсз00675 0.0 101368
03:00+22ссз11755 0.0 101242
06:00+20зсз1187100 0.0 101451
09:00+23зсз217332 0.0 1015629
12:00+27зсз535377 0.0 10131344
15:00+27зсз5453100 0.1 10101414
18:00+24зсз436964 0.1 1011775
21:00+22ссз11807 1.0 1013175
15 апреля, чт
чт1500:00+23зсз117447 0.3 1013126
03:00+22сз11723 0.1 101160
06:00+22ю00755 0.0 101318
09:00+25зсз21515 0.0 1014714
12:00+29зсз53435 0.0 10121533
15:00+29зсз534330 0.6 10091756
18:00+25зсз326763 1.3 1010516
21:00+23ссв117617 3.4 1012289
16 апреля, пт
пт1600:00+23сз117775 1.3 1012195
03:00+23зсз117699 2.4 1011157
06:00+23в127184 0.1 101266
09:00+26зсз2156100 0.2 1013672
12:00+29зсз534898 0.1 10111557
15:00+28зсз545281 2.6 10101413
18:00+25юз116749 5.1 1011408
21:00+26ю115819 6.3 1011228